Time,TemperatureF,DewpointF,PressureIn,WindDirection,WindDirectionDegrees,WindSpeedMPH,WindSpeedGustMPH,Humidity,HourlyPrecipIn,Conditions,Clouds,dailyrainin,SoftwareType,DateUTC
2013-04-16 00:04:00,49.1,44.8,29.18,ENE,59,22.0,22.0,85,0.00,RA,,0.00,WeatherDisplay:10.37,2013-04-16 05:04:00,
2013-04-16 00:09:00,49.1,44.8,29.18,ENE,63,22.0,22.0,85,0.00,RA,,0.00,WeatherDisplay:10.37,2013-04-16 05:09:00,
2013-04-16 00:14:00,49.3,44.6,29.18,NNE,29,21.0,22.0,84,0.00,OVC,,0.00,WeatherDisplay:10.37,2013-04-16 05:14:00,
2013-04-16 00:19:00,49.3,44.6,29.20,NNE,12,21.0,22.0,84,0.00,OVC,,0.00,WeatherDisplay:10.37,2013-04-16 05:19:00,
2013-04-16 00:24:00,48.9,44.0,29.18,ENE,61,21.0,21.0,83,0.00,OVC,,0.00,WeatherDisplay:10.37,2013-04-16 05:24:00,
2013-04-16 00:29:00,48.9,43.7,29.18,ENE,70,20.0,21.0,82,0.00,OVC,,0.00,WeatherDisplay:10.37,2013-04-16 05:29:00,
2013-04-16 00:34:00,49.1,43.8,29.20,NNW,341,20.0,20.0,82,0.00,OVC,,0.00,WeatherDisplay:10.37,2013-04-16 05:34:00,
2013-04-16 00:39:00,48.9,43.7,29.20,North,350,18.0,20.0,82,0.00,OVC,,0.01,WeatherDisplay:10.37,2013-04-16 05:39:00,
2013-04-16 00:44:00,48.4,43.1,29.24,North,2,17.0,18.0,82,0.00,RA,,0.01,WeatherDisplay:10.37,2013-04-16 05:44:00,
2013-04-16 00:49:00,48.4,43.1,29.20,North,2,16.0,17.0,82,0.00,RA,,0.04,WeatherDisplay:10.37,2013-04-16 05:49:00,
2013-04-16 00:54:00,48.4,43.5,29.20,NNE,20,16.0,16.0,83,0.01,RA,,0.06,WeatherDisplay:10.37,2013-04-16 05:54:00,
2013-04-16 00:59:00,48.6,43.6,29.20,ENE,61,16.0,16.0,83,0.00,RA,,0.06,WeatherDisplay:10.37,2013-04-16 05:59:00,
2013-04-16 01:04:00,48.0,43.4,29.20,NE,50,16.0,16.0,84,0.00,RA,,0.07,WeatherDisplay:10.37,2013-04-16 06:04:00,
2013-04-16 01:09:00,47.8,43.5,29.20,NE,39,16.0,16.0,85,0.00,RA,,0.09,WeatherDisplay:10.37,2013-04-16 06:09:00,
2013-04-16 01:14:00,47.7,43.7,29.20,NE,39,17.0,17.0,86,0.00,RA,,0.09,WeatherDisplay:10.37,2013-04-16 06:14:00,
2013-04-16 01:19:00,47.5,43.5,29.24,NNE,19,16.0,17.0,86,0.03,RA,,0.13,WeatherDisplay:10.37,2013-04-16 06:19:00,
2013-04-16 01:24:00,47.3,43.6,29.24,NNE,15,16.0,16.0,87,0.01,RA,,0.21,WeatherDisplay:10.37,2013-04-16 06:24:00,
2013-04-16 01:29:00,46.9,43.6,29.24,North,10,16.0,16.0,88,0.01,RA,,0.23,WeatherDisplay:10.37,2013-04-16 06:29:00,
2013-04-16 01:34:00,46.9,43.6,29.26,North,349,15.0,16.0,88,0.00,RA,,0.24,WeatherDisplay:10.37,2013-04-16 06:34:00,
2013-04-16 01:39:00,47.1,43.7,29.26,North,352,15.0,16.0,88,0.00,RA,,0.28,WeatherDisplay:10.37,2013-04-16 06:39:00,
2013-04-16 01:44:00,46.8,43.7,29.26,NNE,17,15.0,15.0,89,0.01,RA,,0.30,WeatherDisplay:10.37,2013-04-16 06:44:00,
2013-04-16 01:49:00,46.6,43.5,29.26,North,9,15.0,15.0,89,0.00,RA,,0.30,WeatherDisplay:10.37,2013-04-16 06:49:00,
2013-04-16 01:54:00,46.6,43.5,29.26,North,358,15.0,15.0,89,0.00,OVC,,0.30,WeatherDisplay:10.37,2013-04-16 06:54:00,
2013-04-16 02:04:00,47.1,44.0,29.26,NNE,29,13.0,14.0,89,0.03,RA,,0.35,WeatherDisplay:10.37,2013-04-16 07:04:00,
2013-04-16 02:09:00,47.1,44.3,29.26,NE,36,13.0,13.0,90,0.00,RA,,0.35,WeatherDisplay:10.37,2013-04-16 07:09:00,
2013-04-16 02:14:00,46.8,44.0,29.26,North,9,12.0,13.0,90,0.00,OVC,,0.35,WeatherDisplay:10.37,2013-04-16 07:14:00,
2013-04-16 02:19:00,46.8,44.0,29.26,North,357,12.0,12.0,90,0.00,RA,,0.37,WeatherDisplay:10.37,2013-04-16 07:19:00,
2013-04-16 02:24:00,46.9,44.2,29.26,North,351,12.0,12.0,90,0.00,RA,,0.37,WeatherDisplay:10.37,2013-04-16 07:24:00,
2013-04-16 02:29:00,83.5,80.2,29.29,NNW,343,12.0,12.0,90,0.01,RA,,0.38,WeatherDisplay:10.37,2013-04-16 07:29:00,
2013-04-16 02:34:00,46.9,44.2,29.26,North,5,12.0,12.0,90,0.06,RA,,0.44,WeatherDisplay:10.37,2013-04-16 07:34:00,
2013-04-16 02:39:00,46.9,44.2,29.26,North,5,12.0,12.0,90,0.00,RA,,0.45,WeatherDisplay:10.37,2013-04-16 07:39:00,
2013-04-16 02:44:00,46.9,44.2,29.26,NNE,17,12.0,12.0,90,0.01,RA,,0.47,WeatherDisplay:10.37,2013-04-16 07:44:00,
2013-04-16 02:49:00,47.1,44.6,29.26,NNE,16,12.0,12.0,91,0.00,RA,,0.47,WeatherDisplay:10.37,2013-04-16 07:49:00,
2013-04-16 02:54:00,46.9,44.4,29.26,North,9,12.0,12.0,91,0.01,RA,,0.48,WeatherDisplay:10.37,2013-04-16 07:54:00,
2013-04-16 02:59:00,46.9,44.4,29.26,NNE,21,12.0,12.0,91,0.00,RA,,0.48,WeatherDisplay:10.37,2013-04-16 07:59:00,
2013-04-16 03:04:00,47.1,44.6,29.26,NE,34,12.0,12.0,91,0.01,RA,,0.51,WeatherDisplay:10.37,2013-04-16 08:04:00,
2013-04-16 03:09:00,47.1,44.6,29.26,NE,36,12.0,12.0,91,0.00,RA,,0.52,WeatherDisplay:10.37,2013-04-16 08:09:00,
2013-04-16 03:14:00,46.6,44.1,29.24,NNE,25,13.0,13.0,91,0.01,RA,,0.54,WeatherDisplay:10.37,2013-04-16 08:14:00,
2013-04-16 03:19:00,46.2,44.0,29.24,North,4,13.0,13.0,92,0.00,RA,,0.57,WeatherDisplay:10.37,2013-04-16 08:19:00,
2013-04-16 03:24:00,46.2,44.0,29.24,North,6,13.0,13.0,92,0.01,RA,,0.58,WeatherDisplay:10.37,2013-04-16 08:24:00,
2013-04-16 03:29:00,46.2,44.0,29.26,North,10,13.0,13.0,92,0.01,RA,,0.61,WeatherDisplay:10.37,2013-04-16 08:29:00,
2013-04-16 03:34:00,46.2,44.0,29.24,NNE,27,13.0,13.0,92,0.01,RA,,0.62,WeatherDisplay:10.37,2013-04-16 08:34:00,
2013-04-16 03:39:00,46.2,44.0,29.24,NE,48,12.0,13.0,92,0.01,RA,,0.65,WeatherDisplay:10.37,2013-04-16 08:39:00,
2013-04-16 03:44:00,46.0,43.8,29.26,East,79,12.0,12.0,92,0.00,RA,,0.65,WeatherDisplay:10.37,2013-04-16 08:44:00,
2013-04-16 03:49:00,46.4,43.9,29.26,East,90,13.0,13.0,91,0.00,OVC,,0.65,WeatherDisplay:10.37,2013-04-16 08:49:00,
2013-04-16 03:54:00,46.2,44.0,29.26,ENE,69,13.0,13.0,92,0.01,RA,,0.67,WeatherDisplay:10.37,2013-04-16 08:54:00,
2013-04-16 03:59:00,46.2,44.0,29.26,NNE,26,13.0,13.0,92,0.00,RA,,0.67,WeatherDisplay:10.37,2013-04-16 08:59:00,
2013-04-16 04:04:00,46.0,43.8,29.26,North,5,12.0,13.0,92,0.03,RA,,0.74,WeatherDisplay:10.37,2013-04-16 09:04:00,
2013-04-16 04:09:00,45.9,43.7,29.29,North,1,12.0,12.0,92,0.01,RA,,0.75,WeatherDisplay:10.37,2013-04-16 09:09:00,
2013-04-16 04:14:00,46.0,43.8,29.26,NNE,22,12.0,12.0,92,0.01,RA,,0.76,WeatherDisplay:10.37,2013-04-16 09:14:00,
2013-04-16 04:19:00,45.7,43.5,29.26,NE,48,12.0,12.0,92,0.01,RA,,0.79,WeatherDisplay:10.37,2013-04-16 09:19:00,
2013-04-16 04:24:00,45.7,43.5,29.26,NE,54,12.0,12.0,92,0.01,RA,,0.81,WeatherDisplay:10.37,2013-04-16 09:24:00,
2013-04-16 04:29:00,45.7,43.5,29.26,NE,39,12.0,12.0,92,0.00,RA,,0.81,WeatherDisplay:10.37,2013-04-16 09:29:00,
2013-04-16 04:34:00,45.7,43.5,29.29,North,352,12.0,12.0,92,0.00,RA,,0.82,WeatherDisplay:10.37,2013-04-16 09:34:00,
2013-04-16 04:39:00,45.7,43.5,29.32,NNW,340,12.0,12.0,92,0.00,RA,,0.82,WeatherDisplay:10.37,2013-04-16 09:39:00,
2013-04-16 04:44:00,45.5,43.3,29.32,NNW,337,12.0,12.0,92,0.01,RA,,0.84,WeatherDisplay:10.37,2013-04-16 09:44:00,
2013-04-16 04:49:00,45.3,43.1,29.32,NNW,347,10.0,12.0,92,0.00,RA,,0.85,WeatherDisplay:10.37,2013-04-16 09:49:00,
2013-04-16 04:54:00,45.3,43.1,29.32,NNW,348,10.0,11.0,92,0.01,RA,,0.88,WeatherDisplay:10.37,2013-04-16 09:54:00,
2013-04-16 04:59:00,45.5,43.3,29.32,North,351,10.0,10.0,92,0.01,RA,,0.89,WeatherDisplay:10.37,2013-04-16 09:59:00,
2013-04-16 05:04:00,45.1,43.0,29.32,NNE,13,10.0,10.0,92,0.01,RA,,0.92,WeatherDisplay:10.37,2013-04-16 10:04:00,
2013-04-16 05:09:00,45.1,43.0,29.29,NNE,29,10.0,10.0,92,0.01,RA,,0.95,WeatherDisplay:10.37,2013-04-16 10:09:00,
2013-04-16 05:14:00,45.0,42.8,29.29,NNE,32,10.0,11.0,92,0.00,RA,,0.95,WeatherDisplay:10.37,2013-04-16 10:14:00,
2013-04-16 05:19:00,45.0,42.8,29.32,North,354,10.0,11.0,92,0.00,OVC,,0.95,WeatherDisplay:10.37,2013-04-16 10:19:00,
2013-04-16 05:24:00,45.0,42.8,29.32,North,350,10.0,11.0,92,0.00,OVC,,0.95,WeatherDisplay:10.37,2013-04-16 10:24:00,
2013-04-16 05:29:00,45.0,42.8,29.32,North,357,10.0,10.0,92,0.00,OVC,,0.95,WeatherDisplay:10.37,2013-04-16 10:29:00,
2013-04-16 05:34:00,45.0,42.8,29.32,NNE,18,9.0,10.0,92,0.00,OVC,,0.95,WeatherDisplay:10.37,2013-04-16 10:34:00,
2013-04-16 05:39:00,45.1,43.0,29.32,NNE,26,9.0,9.0,92,0.00,OVC,,0.95,WeatherDisplay:10.37,2013-04-16 10:39:00,
2013-04-16 05:44:00,45.1,43.0,29.32,NNE,29,9.0,10.0,92,0.00,OVC,,0.95,WeatherDisplay:10.37,2013-04-16 10:44:00,
2013-04-16 05:49:00,45.1,43.0,29.32,NNE,26,10.0,10.0,92,0.00,-RA,,0.95,WeatherDisplay:10.37,2013-04-16 10:49:00,
2013-04-16 05:54:00,45.1,43.0,29.32,NNE,22,10.0,11.0,92,0.00,-RA,,0.95,WeatherDisplay:10.37,2013-04-16 10:54:00,
2013-04-16 05:59:00,45.1,43.0,29.32,NNE,20,12.0,12.0,92,0.00,-RA,,0.95,WeatherDisplay:10.37,2013-04-16 10:59:00,
2013-04-16 06:04:00,45.0,42.8,29.32,NNE,12,12.0,12.0,92,0.00,OVC,,0.95,WeatherDisplay:10.37,2013-04-16 11:04:00,
2013-04-16 06:09:00,45.0,42.8,29.32,North,4,12.0,12.0,92,0.00,OVC,,0.95,WeatherDisplay:10.37,2013-04-16 11:09:00,
2013-04-16 06:14:00,44.6,42.4,29.32,North,359,12.0,12.0,92,0.00,OVC,,0.95,WeatherDisplay:10.37,2013-04-16 11:14:00,
2013-04-16 06:19:00,44.6,42.1,29.35,North,1,12.0,12.0,91,0.00,OVC,,0.95,WeatherDisplay:10.37,2013-04-16 11:19:00,
2013-04-16 06:24:00,43.9,41.7,29.35,North,359,12.0,12.0,92,0.00,OVC,,0.95,WeatherDisplay:10.37,2013-04-16 11:24:00,
2013-04-16 06:29:00,44.1,41.3,29.38,North,358,12.0,12.0,90,0.00,OVC,,0.95,WeatherDisplay:10.37,2013-04-16 11:29:00,
2013-04-16 06:34:00,44.1,40.7,29.38,North,3,12.0,12.0,88,0.00,OVC,,0.95,WeatherDisplay:10.37,2013-04-16 11:34:00,
2013-04-16 06:39:00,43.9,40.0,29.38,North,3,12.0,12.0,86,0.00,OVC,,0.95,WeatherDisplay:10.37,2013-04-16 11:39:00,
2013-04-16 06:44:00,43.9,39.4,29.35,NNE,16,12.0,12.0,84,0.00,OVC,,0.95,WeatherDisplay:10.37,2013-04-16 11:44:00,
2013-04-16 06:49:00,43.7,38.9,29.35,NNE,29,13.0,13.0,83,0.00,OVC,,0.95,WeatherDisplay:10.37,2013-04-16 11:49:00,
2013-04-16 06:54:00,43.9,39.1,29.35,NE,34,13.0,13.0,83,0.00,OVC,,0.95,WeatherDisplay:10.37,2013-04-16 11:54:00,
2013-04-16 06:59:00,43.9,39.1,29.35,NE,36,14.0,14.0,83,0.00,OVC,,0.95,WeatherDisplay:10.37,2013-04-16 11:59:00,
2013-04-16 07:04:00,43.9,39.1,29.35,NNE,28,14.0,14.0,83,0.00,OVC,,0.95,WeatherDisplay:10.37,2013-04-16 12:04:00,
2013-04-16 07:09:00,43.9,39.4,29.35,NNE,26,14.0,14.0,84,0.00,OVC,,0.95,WeatherDisplay:10.37,2013-04-16 12:09:00,
2013-04-16 07:14:00,43.9,39.4,29.35,NNE,32,15.0,15.0,84,0.01,RA,,0.96,WeatherDisplay:10.37,2013-04-16 12:14:00,
2013-04-16 07:19:00,43.7,39.2,29.35,NE,36,15.0,15.0,84,0.00,RA,,0.96,WeatherDisplay:10.37,2013-04-16 12:19:00,
2013-04-16 07:24:00,43.9,39.4,29.35,NE,35,15.0,15.0,84,0.00,OVC,,0.96,WeatherDisplay:10.37,2013-04-16 12:24:00,
2013-04-16 07:29:00,44.2,39.4,29.35,NNE,22,15.0,15.0,83,0.00,OVC,,0.96,WeatherDisplay:10.37,2013-04-16 12:29:00,
2013-04-16 07:34:00,44.4,39.6,29.38,NNE,24,15.0,15.0,83,0.00,OVC,,0.96,WeatherDisplay:10.37,2013-04-16 12:34:00,
2013-04-16 07:39:00,44.4,39.6,29.38,NNE,25,15.0,15.0,83,0.00,OVC,,0.96,WeatherDisplay:10.37,2013-04-16 12:39:00,
2013-04-16 07:44:00,44.2,39.4,29.38,NNE,24,15.0,15.0,83,0.00,OVC,,0.96,WeatherDisplay:10.37,2013-04-16 12:44:00,
2013-04-16 07:49:00,44.6,39.8,29.38,NNE,29,15.0,15.0,83,0.00,BKN,,0.96,WeatherDisplay:10.37,2013-04-16 12:49:00,
2013-04-16 07:54:00,44.8,39.9,29.38,NNE,27,15.0,15.0,83,0.00,BKN,,0.96,WeatherDisplay:10.37,2013-04-16 12:54:00,
2013-04-16 07:59:00,44.8,39.6,29.38,NNE,26,15.0,15.0,82,0.00,BKN,,0.96,WeatherDisplay:10.37,2013-04-16 12:59:00,
2013-04-16 08:04:00,45.1,40.3,29.38,NE,34,15.0,15.0,83,0.00,OVC,,0.96,WeatherDisplay:10.37,2013-04-16 13:04:00,
2013-04-16 08:09:00,45.1,40.3,29.38,NNE,32,15.0,15.0,83,0.00,OVC,,0.96,WeatherDisplay:10.37,2013-04-16 13:09:00,
2013-04-16 08:14:00,45.3,40.1,29.38,NE,34,15.0,15.0,82,0.00,OVC,,0.96,WeatherDisplay:10.37,2013-04-16 13:14:00,
2013-04-16 08:19:00,46.2,41.0,29.38,NE,40,15.0,15.0,82,0.00,OVC,,0.96,WeatherDisplay:10.37,2013-04-16 13:19:00,
2013-04-16 08:24:00,45.9,40.7,29.38,NE,40,15.0,15.0,82,0.00,OVC,,0.96,WeatherDisplay:10.37,2013-04-16 13:24:00,
2013-04-16 08:29:00,46.6,40.7,29.38,NE,54,16.0,16.0,80,0.00,OVC,,0.96,WeatherDisplay:10.37,2013-04-16 13:29:00,
2013-04-16 08:34:00,45.7,40.2,29.38,NE,49,16.0,16.0,81,0.00,OVC,,0.96,WeatherDisplay:10.37,2013-04-16 13:34:00,
2013-04-16 08:44:00,45.9,40.0,29.38,ENE,60,16.0,16.0,80,0.00,OVC,,0.96,WeatherDisplay:10.37,2013-04-16 13:44:00,
2013-04-16 08:49:00,46.0,40.5,29.38,East,86,16.0,16.0,81,0.00,OVC,,0.96,WeatherDisplay:10.37,2013-04-16 13:49:00,
2013-04-16 08:54:00,45.9,40.4,29.38,East,88,16.0,16.0,81,0.00,OVC,,0.96,WeatherDisplay:10.37,2013-04-16 13:54:00,
2013-04-16 08:59:00,45.7,40.2,29.38,ENE,67,16.0,16.0,81,0.00,OVC,,0.96,WeatherDisplay:10.37,2013-04-16 13:59:00,
2013-04-16 09:04:00,45.7,39.9,29.38,ENE,60,16.0,16.0,80,0.00,OVC,,0.96,WeatherDisplay:10.37,2013-04-16 14:04:00,
2013-04-16 09:09:00,46.0,40.2,29.38,ENE,68,16.0,16.0,80,0.00,OVC,,0.96,WeatherDisplay:10.37,2013-04-16 14:09:00,
2013-04-16 09:14:00,46.0,40.5,29.38,East,83,16.0,16.0,81,0.00,OVC,,0.96,WeatherDisplay:10.37,2013-04-16 14:14:00,
2013-04-16 09:19:00,46.6,40.7,29.38,East,87,16.0,16.0,80,0.00,OVC,,0.96,WeatherDisplay:10.37,2013-04-16 14:19:00,
2013-04-16 09:24:00,46.4,40.6,29.38,ENE,75,16.0,16.0,80,0.00,OVC,,0.96,WeatherDisplay:10.37,2013-04-16 14:24:00,
2013-04-16 09:29:00,46.6,40.7,29.38,NE,51,15.0,16.0,80,0.00,OVC,,0.96,WeatherDisplay:10.37,2013-04-16 14:29:00,
2013-04-16 09:34:00,46.6,41.1,29.38,NE,37,15.0,15.0,81,0.00,OVC,,0.96,WeatherDisplay:10.37,2013-04-16 14:34:00,
2013-04-16 09:39:00,46.6,40.7,29.38,NNE,31,15.0,15.0,80,0.00,OVC,,0.96,WeatherDisplay:10.37,2013-04-16 14:39:00,
2013-04-16 09:44:00,46.6,40.4,29.41,North,5,14.0,15.0,79,0.00,OVC,,0.96,WeatherDisplay:10.37,2013-04-16 14:44:00,
2013-04-16 09:49:00,45.5,40.6,29.41,NNE,23,14.0,14.0,83,0.01,RA,,1.01,WeatherDisplay:10.37,2013-04-16 14:49:00,
2013-04-16 09:54:00,45.5,40.9,29.38,NNE,33,14.0,14.0,84,0.00,RA,,1.01,WeatherDisplay:10.37,2013-04-16 14:54:00,
2013-04-16 09:59:00,45.5,41.3,29.41,NNE,15,13.0,13.0,85,0.00,OVC,,1.01,WeatherDisplay:10.37,2013-04-16 14:59:00,
2013-04-16 10:04:00,45.5,41.3,29.41,North,10,13.0,13.0,85,0.00,RA,,1.02,WeatherDisplay:10.37,2013-04-16 15:04:00,
2013-04-16 10:09:00,46.0,42.1,29.41,NE,39,12.0,13.0,86,0.00,RA,,1.02,WeatherDisplay:10.37,2013-04-16 15:09:00,
2013-04-16 10:19:00,46.8,42.8,29.38,SE,127,12.0,12.0,86,0.00,OVC,,1.02,WeatherDisplay:10.37,2013-04-16 15:19:00,
2013-04-16 10:24:00,45.9,42.2,29.38,SE,136,12.0,12.0,87,0.00,OVC,,1.02,WeatherDisplay:10.37,2013-04-16 15:24:00,
2013-04-16 10:29:00,46.8,42.5,29.38,East,99,12.0,12.0,85,0.00,OVC,,1.02,WeatherDisplay:10.37,2013-04-16 15:29:00,
2013-04-16 10:34:00,46.2,42.0,29.38,North,3,12.0,12.0,85,0.00,OVC,,1.02,WeatherDisplay:10.37,2013-04-16 15:34:00,
2013-04-16 10:39:00,46.0,41.8,29.41,North,357,12.0,12.0,85,0.00,OVC,,1.02,WeatherDisplay:10.37,2013-04-16 15:39:00,
2013-04-16 10:44:00,45.9,41.6,29.41,NNW,345,12.0,12.0,85,0.01,RA,,1.03,WeatherDisplay:10.37,2013-04-16 15:44:00,
2013-04-16 10:49:00,45.9,41.9,29.41,North,354,12.0,12.0,86,0.00,RA,,1.03,WeatherDisplay:10.37,2013-04-16 15:49:00,
2013-04-16 10:54:00,45.7,41.7,29.41,North,357,12.0,12.0,86,0.00,OVC,,1.03,WeatherDisplay:10.37,2013-04-16 15:54:00,
2013-04-16 10:59:00,45.5,41.9,29.41,North,356,12.0,12.0,87,0.00,OVC,,1.03,WeatherDisplay:10.37,2013-04-16 15:59:00,
2013-04-16 11:04:00,46.0,42.4,29.41,NNE,28,12.0,12.0,87,0.00,OVC,,1.03,WeatherDisplay:10.37,2013-04-16 16:04:00,
2013-04-16 11:09:00,45.5,42.2,29.38,NE,41,12.0,12.0,88,0.00,OVC,,1.03,WeatherDisplay:10.37,2013-04-16 16:09:00,
2013-04-16 11:14:00,45.7,42.0,29.38,NE,41,13.0,13.0,87,0.00,OVC,,1.03,WeatherDisplay:10.37,2013-04-16 16:14:00,
2013-04-16 11:19:00,46.0,42.7,29.41,NE,37,13.0,13.0,88,0.00,OVC,,1.03,WeatherDisplay:10.37,2013-04-16 16:19:00,
2013-04-16 11:24:00,46.0,42.7,29.41,NNE,31,13.0,13.0,88,0.00,OVC,,1.03,WeatherDisplay:10.37,2013-04-16 16:24:00,
2013-04-16 11:29:00,45.3,41.7,29.41,NNE,15,13.0,13.0,87,0.00,OVC,,1.03,WeatherDisplay:10.37,2013-04-16 16:29:00,
2013-04-16 11:34:00,45.3,41.7,29.41,North,5,13.0,13.0,87,0.00,OVC,,1.03,WeatherDisplay:10.37,2013-04-16 16:34:00,
2013-04-16 11:39:00,45.1,41.5,29.41,NNE,12,13.0,13.0,87,0.00,OVC,,1.03,WeatherDisplay:10.37,2013-04-16 16:39:00,
2013-04-16 11:49:00,37.8,33.1,29.44,NNW,348,13.0,13.0,83,0.00,RA,,1.05,WeatherDisplay:10.37,2013-04-16 16:49:00,
2013-04-16 11:54:00,45.1,41.5,29.44,NNE,21,13.0,13.0,87,0.01,RA,,1.06,WeatherDisplay:10.37,2013-04-16 16:54:00,
2013-04-16 11:59:00,44.8,41.4,29.41,ESE,110,13.0,13.0,88,0.00,RA,,1.09,WeatherDisplay:10.37,2013-04-16 16:59:00,
2013-04-16 12:04:00,44.6,41.3,29.38,ESE,119,13.0,13.0,88,0.00,OVC,,1.09,WeatherDisplay:10.37,2013-04-16 17:04:00,
2013-04-16 12:09:00,44.6,41.3,29.41,East,96,13.0,13.0,88,0.01,RA,,1.15,WeatherDisplay:10.37,2013-04-16 17:09:00,
2013-04-16 12:14:00,44.4,41.4,29.38,East,97,13.0,13.0,89,0.01,RA,,1.16,WeatherDisplay:10.37,2013-04-16 17:14:00,
2013-04-16 12:19:00,44.2,41.2,29.38,ESE,115,13.0,13.0,89,0.00,RA,,1.18,WeatherDisplay:10.37,2013-04-16 17:19:00,
2013-04-16 12:24:00,44.2,41.5,29.38,ESE,111,13.0,13.0,90,0.01,RA,,1.19,WeatherDisplay:10.37,2013-04-16 17:24:00,
2013-04-16 12:29:00,44.4,41.7,29.38,East,93,14.0,14.0,90,0.00,RA,,1.19,WeatherDisplay:10.37,2013-04-16 17:29:00,
2013-04-16 12:34:00,44.2,41.5,29.41,ENE,65,13.0,14.0,90,0.00,OVC,,1.19,WeatherDisplay:10.37,2013-04-16 17:34:00,
2013-04-16 12:39:00,44.4,41.7,29.41,ENE,63,13.0,13.0,90,0.00,OVC,,1.19,WeatherDisplay:10.37,2013-04-16 17:39:00,
2013-04-16 12:49:00,44.6,41.8,29.35,ENE,60,15.0,15.0,90,0.00,OVC,,1.19,WeatherDisplay:10.37,2013-04-16 17:49:00,
2013-04-16 12:54:00,45.0,42.2,29.35,NE,56,15.0,15.0,90,0.01,RA,,1.21,WeatherDisplay:10.37,2013-04-16 17:54:00,
2013-04-16 12:59:00,46.9,43.9,29.38,NE,49,16.0,16.0,89,0.00,RA,,1.21,WeatherDisplay:10.37,2013-04-16 17:59:00,
2013-04-16 13:04:00,45.9,43.1,29.38,NNE,21,16.0,16.0,90,0.00,OVC,,1.21,WeatherDisplay:10.37,2013-04-16 18:04:00,
2013-04-16 13:09:00,46.0,43.3,29.41,North,10,16.0,16.0,90,0.00,OVC,,1.21,WeatherDisplay:10.37,2013-04-16 18:09:00,
2013-04-16 13:14:00,46.4,43.0,29.41,North,5,16.0,16.0,88,0.00,OVC,,1.21,WeatherDisplay:10.37,2013-04-16 18:14:00,
2013-04-16 13:19:00,46.4,43.0,29.38,NNE,23,16.0,16.0,88,0.00,OVC,,1.21,WeatherDisplay:10.37,2013-04-16 18:19:00,
2013-04-16 13:24:00,46.0,43.0,29.41,NNE,30,16.0,16.0,89,0.00,OVC,,1.21,WeatherDisplay:10.37,2013-04-16 18:24:00,
2013-04-16 13:29:00,45.9,42.8,29.41,NNE,18,16.0,16.0,89,0.00,OVC,,1.21,WeatherDisplay:10.37,2013-04-16 18:29:00,
2013-04-16 13:34:00,46.6,42.6,29.41,NNE,19,16.0,16.0,86,0.00,OVC,,1.21,WeatherDisplay:10.37,2013-04-16 18:34:00,
2013-04-16 13:39:00,47.1,43.1,29.41,NNE,28,16.0,16.0,86,0.00,OVC,,1.21,WeatherDisplay:10.37,2013-04-16 18:39:00,
2013-04-16 13:44:00,46.6,42.3,29.41,NE,44,16.0,17.0,85,0.00,OVC,,1.21,WeatherDisplay:10.37,2013-04-16 18:44:00,
2013-04-16 13:49:00,46.6,42.0,29.38,NE,52,17.0,17.0,84,0.00,OVC,,1.21,WeatherDisplay:10.37,2013-04-16 18:49:00,
2013-04-16 13:54:00,47.1,42.5,29.38,NE,49,17.0,17.0,84,0.00,OVC,,1.21,WeatherDisplay:10.37,2013-04-16 18:54:00,
2013-04-16 13:59:00,46.8,42.2,29.38,NE,41,17.0,18.0,84,0.00,OVC,,1.21,WeatherDisplay:10.37,2013-04-16 18:59:00,
2013-04-16 14:04:00,47.3,42.7,29.38,NNE,31,17.0,18.0,84,0.00,OVC,,1.21,WeatherDisplay:10.37,2013-04-16 19:04:00,
2013-04-16 14:09:00,47.3,42.7,29.38,NNE,31,17.0,18.0,84,0.00,OVC,,1.21,WeatherDisplay:10.37,2013-04-16 19:09:00,
2013-04-16 14:14:00,47.5,42.9,29.38,NE,40,17.0,18.0,84,0.00,OVC,,1.21,WeatherDisplay:10.37,2013-04-16 19:14:00,
2013-04-16 14:19:00,47.7,42.8,29.41,NE,38,17.0,18.0,83,0.00,OVC,,1.21,WeatherDisplay:10.37,2013-04-16 19:19:00,
2013-04-16 14:24:00,47.7,42.8,29.41,NE,36,17.0,18.0,83,0.00,OVC,,1.21,WeatherDisplay:10.37,2013-04-16 19:24:00,
2013-04-16 14:29:00,48.2,43.0,29.41,NE,42,17.0,18.0,82,0.00,OVC,,1.21,WeatherDisplay:10.37,2013-04-16 19:29:00,
2013-04-16 14:34:00,47.8,42.6,29.41,NE,49,18.0,18.0,82,0.00,OVC,,1.21,WeatherDisplay:10.37,2013-04-16 19:34:00,
2013-04-16 14:39:00,47.7,42.1,29.38,NE,52,18.0,18.0,81,0.00,OVC,,1.21,WeatherDisplay:10.37,2013-04-16 19:39:00,
2013-04-16 14:44:00,47.7,41.8,29.38,ENE,61,18.0,18.0,80,0.00,OVC,,1.21,WeatherDisplay:10.37,2013-04-16 19:44:00,
2013-04-16 14:49:00,47.7,41.8,29.38,ENE,74,17.0,18.0,80,0.00,OVC,,1.21,WeatherDisplay:10.37,2013-04-16 19:49:00,
2013-04-16 14:54:00,47.3,41.8,29.41,ENE,75,17.0,18.0,81,0.00,OVC,,1.21,WeatherDisplay:10.37,2013-04-16 19:54:00,
2013-04-16 14:59:00,46.8,41.9,29.41,ENE,61,16.0,17.0,83,0.01,RA,,1.22,WeatherDisplay:10.37,2013-04-16 19:59:00,
2013-04-16 15:04:00,46.8,42.2,29.41,ENE,63,16.0,17.0,84,0.00,RA,,1.22,WeatherDisplay:10.37,2013-04-16 20:04:00,
2013-04-16 15:09:00,46.8,42.2,29.38,ENE,76,16.0,16.0,84,0.00,OVC,,1.22,WeatherDisplay:10.37,2013-04-16 20:09:00,
2013-04-16 15:14:00,47.3,43.0,29.38,ENE,64,16.0,16.0,85,0.01,RA,,1.23,WeatherDisplay:10.37,2013-04-16 20:14:00,
2013-04-16 15:19:00,47.1,42.8,29.38,NE,44,16.0,16.0,85,0.00,RA,,1.23,WeatherDisplay:10.37,2013-04-16 20:19:00,
2013-04-16 15:24:00,46.8,42.8,29.38,NE,44,16.0,16.0,86,0.00,OVC,,1.23,WeatherDisplay:10.37,2013-04-16 20:24:00,
2013-04-16 15:29:00,47.5,43.5,29.38,NE,51,16.0,16.0,86,0.00,OVC,,1.23,WeatherDisplay:10.37,2013-04-16 20:29:00,
2013-04-16 15:34:00,47.5,43.5,29.41,NE,54,16.0,17.0,86,0.00,OVC,,1.23,WeatherDisplay:10.37,2013-04-16 20:34:00,
2013-04-16 15:39:00,47.5,43.5,29.41,ENE,57,16.0,16.0,86,0.00,OVC,,1.23,WeatherDisplay:10.37,2013-04-16 20:39:00,
2013-04-16 15:44:00,47.5,43.5,29.41,ENE,64,16.0,16.0,86,0.00,OVC,,1.23,WeatherDisplay:10.37,2013-04-16 20:44:00,
2013-04-16 15:49:00,47.3,43.3,29.41,NE,47,15.0,16.0,86,0.00,OVC,,1.23,WeatherDisplay:10.37,2013-04-16 20:49:00,
2013-04-16 15:54:00,47.5,43.5,29.41,NE,43,15.0,15.0,86,0.00,OVC,,1.23,WeatherDisplay:10.37,2013-04-16 20:54:00,
2013-04-16 15:59:00,47.3,43.3,29.41,NE,50,14.0,15.0,86,0.00,OVC,,1.23,WeatherDisplay:10.37,2013-04-16 20:59:00,
2013-04-16 16:04:00,48.0,44.0,29.41,NE,47,14.0,14.0,86,0.00,-RA,,1.23,WeatherDisplay:10.37,2013-04-16 21:04:00,
2013-04-16 16:09:00,48.6,43.9,29.38,NE,47,14.0,14.0,84,0.00,-RA,,1.23,WeatherDisplay:10.37,2013-04-16 21:09:00,
2013-04-16 16:14:00,48.6,43.9,29.38,NE,46,14.0,14.0,84,0.00,-RA,,1.23,WeatherDisplay:10.37,2013-04-16 21:14:00,
2013-04-16 16:19:00,48.4,43.5,29.38,NE,44,14.0,14.0,83,0.00,-RA,,1.23,WeatherDisplay:10.37,2013-04-16 21:19:00,
2013-04-16 16:24:00,48.6,43.3,29.38,NE,48,14.0,14.0,82,0.00,-RA,,1.23,WeatherDisplay:10.37,2013-04-16 21:24:00,
2013-04-16 16:29:00,49.5,44.2,29.38,ENE,63,14.0,14.0,82,0.00,-RA,,1.23,WeatherDisplay:10.37,2013-04-16 21:29:00,
2013-04-16 16:34:00,49.5,44.2,29.38,ENE,66,14.0,14.0,82,0.00,OVC,,1.23,WeatherDisplay:10.37,2013-04-16 21:34:00,
2013-04-16 16:39:00,49.6,44.4,29.38,ENE,60,14.0,14.0,82,0.00,OVC,,1.23,WeatherDisplay:10.37,2013-04-16 21:39:00,
2013-04-16 16:44:00,49.1,43.2,29.38,NE,53,15.0,15.0,80,0.00,OVC,,1.23,WeatherDisplay:10.37,2013-04-16 21:44:00,
2013-04-16 16:49:00,49.3,43.7,29.38,NE,51,15.0,15.0,81,0.00,OVC,,1.23,WeatherDisplay:10.37,2013-04-16 21:49:00,
2013-04-16 16:54:00,49.3,43.7,29.38,NE,54,15.0,15.0,81,0.00,OVC,,1.23,WeatherDisplay:10.37,2013-04-16 21:54:00,
2013-04-16 16:59:00,49.3,43.4,29.38,ENE,71,15.0,15.0,80,0.00,OVC,,1.23,WeatherDisplay:10.37,2013-04-16 21:59:00,
2013-04-16 17:04:00,49.6,44.0,29.38,East,80,14.0,15.0,81,0.00,OVC,,1.23,WeatherDisplay:10.37,2013-04-16 22:04:00,
2013-04-16 17:09:00,49.6,44.0,29.38,ENE,77,14.0,14.0,81,0.00,OVC,,1.23,WeatherDisplay:10.37,2013-04-16 22:09:00,
2013-04-16 17:14:00,49.6,44.0,29.38,East,81,14.0,14.0,81,0.00,OVC,,1.23,WeatherDisplay:10.37,2013-04-16 22:14:00,
2013-04-16 17:19:00,49.8,44.2,29.41,ENE,74,14.0,14.0,81,0.00,OVC,,1.23,WeatherDisplay:10.37,2013-04-16 22:19:00,
2013-04-16 17:24:00,49.6,44.0,29.38,ENE,65,14.0,14.0,81,0.00,OVC,,1.23,WeatherDisplay:10.37,2013-04-16 22:24:00,
2013-04-16 17:29:00,49.6,44.0,29.41,ENE,62,14.0,14.0,81,0.00,OVC,,1.23,WeatherDisplay:10.37,2013-04-16 22:29:00,
2013-04-16 17:34:00,49.5,43.9,29.41,ENE,70,13.0,14.0,81,0.00,OVC,,1.23,WeatherDisplay:10.37,2013-04-16 22:34:00,
2013-04-16 17:39:00,49.5,43.9,29.38,East,79,13.0,13.0,81,0.00,OVC,,1.23,WeatherDisplay:10.37,2013-04-16 22:39:00,
2013-04-16 17:44:00,49.5,43.9,29.38,East,81,13.0,13.0,81,0.00,OVC,,1.23,WeatherDisplay:10.37,2013-04-16 22:44:00,
2013-04-16 17:49:00,49.5,43.9,29.41,ENE,77,13.0,13.0,81,0.00,OVC,,1.23,WeatherDisplay:10.37,2013-04-16 22:49:00,
2013-04-16 17:54:00,49.6,44.0,29.41,East,79,13.0,13.0,81,0.00,OVC,,1.23,WeatherDisplay:10.37,2013-04-16 22:54:00,
2013-04-16 17:59:00,49.6,44.0,29.41,East,82,13.0,13.0,81,0.00,OVC,,1.23,WeatherDisplay:10.37,2013-04-16 22:59:00,
2013-04-16 18:04:00,49.6,44.0,29.38,ENE,75,13.0,13.0,81,0.00,OVC,,1.23,WeatherDisplay:10.37,2013-04-16 23:04:00,
2013-04-16 18:09:00,50.0,44.1,29.38,ENE,63,13.0,13.0,80,0.00,OVC,,1.23,WeatherDisplay:10.37,2013-04-16 23:09:00,
2013-04-16 18:14:00,50.0,44.1,29.41,NE,45,13.0,13.0,80,0.00,OVC,,1.23,WeatherDisplay:10.37,2013-04-16 23:14:00,
2013-04-16 18:19:00,50.0,43.7,29.41,NE,54,12.0,13.0,79,0.00,OVC,,1.23,WeatherDisplay:10.37,2013-04-16 23:19:00,
2013-04-16 18:24:00,50.0,43.7,29.41,ENE,60,12.0,12.0,79,0.00,OVC,,1.23,WeatherDisplay:10.37,2013-04-16 23:24:00,
2013-04-16 18:29:00,50.0,43.7,29.41,ENE,67,12.0,12.0,79,0.00,OVC,,1.23,WeatherDisplay:10.37,2013-04-16 23:29:00,
2013-04-16 18:34:00,50.0,44.1,29.41,ENE,64,12.0,12.0,80,0.00,OVC,,1.23,WeatherDisplay:10.37,2013-04-16 23:34:00,
2013-04-16 18:39:00,50.0,44.1,29.41,ENE,65,12.0,12.0,80,0.00,OVC,,1.23,WeatherDisplay:10.37,2013-04-16 23:39:00,
2013-04-16 18:44:00,50.0,44.4,29.41,ENE,63,10.0,11.0,81,0.00,OVC,,1.23,WeatherDisplay:10.37,2013-04-16 23:44:00,
2013-04-16 18:49:00,49.8,44.9,29.41,ENE,59,10.0,11.0,83,0.00,OVC,,1.23,WeatherDisplay:10.37,2013-04-16 23:49:00,
2013-04-16 18:54:00,49.8,44.9,29.41,ENE,58,10.0,10.0,83,0.00,OVC,,1.23,WeatherDisplay:10.37,2013-04-16 23:54:00,
2013-04-16 18:59:00,49.6,45.0,29.41,NE,53,10.0,10.0,84,0.00,RA,,1.25,WeatherDisplay:10.37,2013-04-16 23:59:00,
2013-04-16 19:04:00,49.8,45.2,29.41,NE,53,10.0,10.0,84,0.00,-RA,,1.25,WeatherDisplay:10.37,2013-04-17 00:04:00,
2013-04-16 19:09:00,49.8,45.2,29.41,ENE,57,9.0,10.0,84,0.00,-RA,,1.25,WeatherDisplay:10.37,2013-04-17 00:09:00,
2013-04-16 19:14:00,49.8,45.2,29.41,NE,52,9.0,10.0,84,0.00,-RA,,1.25,WeatherDisplay:10.37,2013-04-17 00:14:00,
2013-04-16 19:19:00,50.0,45.0,29.41,NE,50,9.0,10.0,83,0.00,-RA,,1.25,WeatherDisplay:10.37,2013-04-17 00:19:00,
2013-04-16 19:24:00,50.0,45.0,29.41,NE,48,9.0,9.0,83,0.00,-RA,,1.25,WeatherDisplay:10.37,2013-04-17 00:24:00,
2013-04-16 19:29:00,50.0,45.0,29.41,NE,50,9.0,9.0,83,0.00,-RA,,1.25,WeatherDisplay:10.37,2013-04-17 00:29:00,
2013-04-16 19:34:00,50.0,45.0,29.41,ENE,59,9.0,9.0,83,0.00,-RA,,1.25,WeatherDisplay:10.37,2013-04-17 00:34:00,
2013-04-16 19:39:00,49.8,45.2,29.41,ENE,70,9.0,9.0,84,0.00,-RA,,1.25,WeatherDisplay:10.37,2013-04-17 00:39:00,
2013-04-16 19:44:00,49.8,45.2,29.41,East,87,9.0,9.0,84,0.00,-RA,,1.25,WeatherDisplay:10.37,2013-04-17 00:44:00,
2013-04-16 19:49:00,50.0,44.7,29.41,ENE,77,9.0,10.0,82,0.00,OVC,,1.25,WeatherDisplay:10.37,2013-04-17 00:49:00,
2013-04-16 19:54:00,50.0,44.4,29.41,ENE,76,9.0,10.0,81,0.00,OVC,,1.25,WeatherDisplay:10.37,2013-04-17 00:54:00,
2013-04-16 19:59:00,50.0,44.1,29.41,ENE,74,10.0,10.0,80,0.00,OVC,,1.25,WeatherDisplay:10.37,2013-04-17 00:59:00,
2013-04-16 20:04:00,50.0,44.1,29.41,ENE,75,10.0,10.0,80,0.00,OVC,,1.25,WeatherDisplay:10.37,2013-04-17 01:04:00,
2013-04-16 20:09:00,49.8,44.5,29.41,ENE,71,10.0,10.0,82,0.00,OVC,,1.25,WeatherDisplay:10.37,2013-04-17 01:09:00,
2013-04-16 20:14:00,49.8,44.5,29.41,ENE,65,10.0,10.0,82,0.00,OVC,,1.25,WeatherDisplay:10.37,2013-04-17 01:14:00,
2013-04-16 20:19:00,49.6,44.4,29.41,ENE,67,10.0,10.0,82,0.00,OVC,,1.25,WeatherDisplay:10.37,2013-04-17 01:19:00,
2013-04-16 20:24:00,49.6,44.4,29.41,ENE,68,10.0,10.0,82,0.00,OVC,,1.25,WeatherDisplay:10.37,2013-04-17 01:24:00,
2013-04-16 20:29:00,49.5,44.2,29.41,ENE,74,10.0,10.0,82,0.00,OVC,,1.25,WeatherDisplay:10.37,2013-04-17 01:29:00,
2013-04-16 20:34:00,49.5,44.5,29.41,ENE,65,9.0,10.0,83,0.00,-RA,,1.25,WeatherDisplay:10.37,2013-04-17 01:34:00,
2013-04-16 20:39:00,49.5,44.5,29.41,ENE,64,9.0,10.0,83,0.01,-RA,,1.26,WeatherDisplay:10.37,2013-04-17 01:39:00,
2013-04-16 20:44:00,49.5,44.5,29.41,ENE,67,9.0,10.0,83,0.00,-RA,,1.26,WeatherDisplay:10.37,2013-04-17 01:44:00,
2013-04-16 20:49:00,49.3,44.6,29.41,NE,53,9.0,10.0,84,0.00,OVC,,1.26,WeatherDisplay:10.37,2013-04-17 01:49:00,
2013-04-16 20:54:00,49.3,44.6,29.41,NE,55,9.0,10.0,84,0.00,OVC,,1.26,WeatherDisplay:10.37,2013-04-17 01:54:00,
2013-04-16 20:59:00,49.3,44.6,29.41,ENE,58,9.0,10.0,84,0.00,OVC,,1.26,WeatherDisplay:10.37,2013-04-17 01:59:00,
2013-04-16 21:04:00,49.3,44.6,29.41,ENE,57,9.0,10.0,84,0.00,OVC,,1.26,WeatherDisplay:10.37,2013-04-17 02:04:00,
2013-04-16 21:09:00,49.5,44.8,29.41,ENE,58,9.0,10.0,84,0.00,OVC,,1.26,WeatherDisplay:10.37,2013-04-17 02:09:00,
2013-04-16 21:14:00,49.5,44.8,29.41,NE,49,9.0,9.0,84,0.00,OVC,,1.26,WeatherDisplay:10.37,2013-04-17 02:14:00,
2013-04-16 21:19:00,49.5,44.8,29.44,NE,43,9.0,9.0,84,0.00,OVC,,1.26,WeatherDisplay:10.37,2013-04-17 02:19:00,
2013-04-16 21:24:00,49.5,44.5,29.44,NE,48,9.0,9.0,83,0.00,OVC,,1.26,WeatherDisplay:10.37,2013-04-17 02:24:00,
2013-04-16 21:29:00,49.5,44.5,29.44,NE,52,9.0,9.0,83,0.00,OVC,,1.26,WeatherDisplay:10.37,2013-04-17 02:29:00,
2013-04-16 21:34:00,49.5,44.8,29.44,ENE,60,8.0,9.0,84,0.00,OVC,,1.26,WeatherDisplay:10.37,2013-04-17 02:34:00,
2013-04-16 21:39:00,49.5,44.8,29.44,ENE,65,8.0,9.0,84,0.00,OVC,,1.26,WeatherDisplay:10.37,2013-04-17 02:39:00,
2013-04-16 21:44:00,49.5,44.8,29.44,ENE,61,8.0,8.0,84,0.00,OVC,,1.26,WeatherDisplay:10.37,2013-04-17 02:44:00,
2013-04-16 21:49:00,49.5,44.8,29.44,NE,50,8.0,8.0,84,0.00,OVC,,1.26,WeatherDisplay:10.37,2013-04-17 02:49:00,
2013-04-16 21:54:00,49.5,44.8,29.44,NE,51,8.0,8.0,84,0.00,OVC,,1.26,WeatherDisplay:10.37,2013-04-17 02:54:00,
2013-04-16 21:59:00,49.5,44.8,29.44,ENE,60,8.0,8.0,84,0.00,OVC,,1.26,WeatherDisplay:10.37,2013-04-17 02:59:00,
2013-04-16 22:04:00,49.5,44.5,29.41,ENE,60,8.0,8.0,83,0.00,OVC,,1.26,WeatherDisplay:10.37,2013-04-17 03:04:00,
2013-04-16 22:09:00,49.6,44.7,29.41,ENE,60,8.0,8.0,83,0.00,OVC,,1.26,WeatherDisplay:10.37,2013-04-17 03:09:00,
2013-04-16 22:14:00,49.6,44.7,29.44,ENE,60,9.0,9.0,83,0.00,OVC,,1.26,WeatherDisplay:10.37,2013-04-17 03:14:00,
2013-04-16 22:19:00,49.8,44.9,29.44,ENE,71,9.0,9.0,83,0.00,OVC,,1.26,WeatherDisplay:10.37,2013-04-17 03:19:00,
2013-04-16 22:24:00,49.8,44.9,29.44,East,89,9.0,9.0,83,0.00,OVC,,1.26,WeatherDisplay:10.37,2013-04-17 03:24:00,
2013-04-16 22:29:00,49.6,44.7,29.44,ESE,111,10.0,10.0,83,0.00,OVC,,1.26,WeatherDisplay:10.37,2013-04-17 03:29:00,
2013-04-16 22:34:00,49.6,44.7,29.44,ESE,122,10.0,11.0,83,0.00,OVC,,1.26,WeatherDisplay:10.37,2013-04-17 03:34:00,
2013-04-16 22:39:00,49.6,44.7,29.44,SE,127,12.0,12.0,83,0.00,OVC,,1.26,WeatherDisplay:10.37,2013-04-17 03:39:00,
2013-04-16 22:44:00,49.6,44.4,29.44,ESE,121,12.0,12.0,82,0.00,OVC,,1.26,WeatherDisplay:10.37,2013-04-17 03:44:00,
2013-04-16 22:49:00,49.8,44.5,29.44,ESE,117,13.0,13.0,82,0.00,OVC,,1.26,WeatherDisplay:10.37,2013-04-17 03:49:00,
2013-04-16 22:54:00,49.8,44.5,29.44,ESE,114,13.0,13.0,82,0.00,OVC,,1.26,WeatherDisplay:10.37,2013-04-17 03:54:00,
2013-04-16 22:59:00,49.6,44.0,29.44,ESE,107,13.0,13.0,81,0.00,OVC,,1.26,WeatherDisplay:10.37,2013-04-17 03:59:00,
2013-04-16 23:04:00,49.6,43.7,29.41,ESE,116,14.0,14.0,80,0.00,OVC,,1.26,WeatherDisplay:10.37,2013-04-17 04:04:00,
2013-04-16 23:09:00,49.5,43.5,29.41,ESE,118,14.0,14.0,80,0.00,OVC,,1.26,WeatherDisplay:10.37,2013-04-17 04:09:00,
2013-04-16 23:14:00,49.1,42.2,29.41,ESE,123,15.0,15.0,77,0.00,OVC,,1.26,WeatherDisplay:10.37,2013-04-17 04:14:00,
2013-04-16 23:19:00,49.1,41.2,29.41,ESE,117,16.0,16.0,74,0.00,OVC,,1.26,WeatherDisplay:10.37,2013-04-17 04:19:00,
2013-04-16 23:24:00,49.1,40.8,29.41,ESE,112,17.0,17.0,73,0.00,OVC,,1.26,WeatherDisplay:10.37,2013-04-17 04:24:00,
2013-04-16 23:29:00,48.9,40.6,29.41,ESE,111,18.0,18.0,73,0.00,OVC,,1.26,WeatherDisplay:10.37,2013-04-17 04:29:00,
2013-04-16 23:34:00,48.7,40.5,29.41,ESE,109,18.0,18.0,73,0.00,OVC,,1.26,WeatherDisplay:10.37,2013-04-17 04:34:00,
2013-04-16 23:39:00,48.7,40.5,29.41,ESE,111,18.0,19.0,73,0.00,OVC,,1.26,WeatherDisplay:10.37,2013-04-17 04:39:00,
2013-04-16 23:44:00,48.7,40.5,29.41,ESE,109,20.0,20.0,73,0.00,OVC,,1.26,WeatherDisplay:10.37,2013-04-17 04:44:00,
2013-04-16 23:49:00,48.6,39.9,29.41,ESE,112,20.0,20.0,72,0.00,OVC,,1.26,WeatherDisplay:10.37,2013-04-17 04:49:00,
2013-04-16 23:54:00,48.6,40.3,29.41,ESE,113,20.0,20.0,73,0.00,OVC,,1.26,WeatherDisplay:10.37,2013-04-17 04:54:00,
2013-04-16 23:59:00,48.6,40.3,29.41,ESE,108,20.0,20.0,73,0.00,OVC,,0.00,WeatherDisplay:10.37,2013-04-17 04:59:00,